Погода в Лубянах

Россия / Костромская область     57°28′21″N   43°10′50″E
темп.,
°C
ветер,
м/с
пор.,
м/с
влажн.,
%
обл.,
%
осадки,
мм/ч
давл.,
гПа
погр.,
м
19 июня, сб
сб1900:00+15юз38915 0.0 1024148
03:00+15юз3119067 0.0 1024245
06:00+18зюз3117695 0.0 1023340
09:00+24зюз595441 0.0 1022721
12:00+27з694416 0.0 10221713
15:00+28з68415 0.0 10211937
18:00+26зюз48550 0.0 10201143
21:00+20зюз39822 0.0 1021187
20 июня, вс
вс2000:00+18з39935 0.0 1021182
03:00+17з28965 0.0 1022150
06:00+20з25785 0.0 1022208
09:00+26зюз34540 0.0 1022636
12:00+29юз45425 0.0 10211630
15:00+29юз44405 0.0 10211460
18:00+28зюз36523 0.0 1020556
21:00+21з22750 0.0 102125
21 июня, пн
пн2100:00+19зюз22830 0.0 102125
03:00+17юз22930 0.0 102126
06:00+21зюз24750 0.0 1021163
09:00+26юз24570 0.0 1021646
12:00+29ююз45474 0.0 10211337
15:00+30юз44415 0.0 10201336
18:00+28юз365210 0.0 1020355
21:00+22зюз2673100 0.0 102198
22 июня, вт
вт2200:00+20зюз227425 0.0 102117
03:00+18зюз22815 0.0 102221
06:00+21юз2372100 0.0 102299
09:00+25юз235399 0.0 1022452
12:00+29ююз334384 0.0 10221259
15:00+28ююз3449100 0.0 1021979
18:00+27ююз245630 0.0 1020200
21:00+22зюз22720 0.0 102011
23 июня, ср
ср2300:00+19сз00770 0.0 102111
03:00+19юз117864 0.0 102111
06:00+22ююз11715 0.0 102191
09:00+27юз23582 0.3 1021567
12:00+31юз34445 0.0 10211678
15:00+32з34375 0.0 10201798
18:00+30з474925 0.0 1019708
21:00+24з35730 0.0 102086